,,Stat6,,Stat2,,Stat8,,Stat9,,Stat10,,Wind1,,Wind1,
time,status,PA1M_AVG,status,PR1M_SUM,status,RH1M_AVG,status,SR1M_AVG,status,TA1M_AVG,status,W1dAve1m,status,W1sAve1m,
2008-06-04, 00:00:00,VALID,919.457,VALID,0.2,VALID,100,VALID,-0.118866,VALID,19.7979,VALID,349,VALID,0,
2008-06-04, 00:01:00,VALID,919.46,VALID,0,VALID,100,VALID,-0.0679233,VALID,19.7979,VALID,358,VALID,0,
2008-06-04, 00:02:00,VALID,919.461,VALID,0,VALID,100,VALID,-0.0849042,VALID,19.7849,VALID,359,VALID,0,
2008-06-04, 00:03:00,VALID,919.448,VALID,0,VALID,100,VALID,-0.101885,VALID,19.7754,VALID,1,VALID,0,
2008-06-04, 00:04:00,VALID,919.439,VALID,0,VALID,100,VALID,-0.101885,VALID,19.7749,VALID,9,VALID,0,
2008-06-04, 00:05:00,VALID,919.41,VALID,0,VALID,100,VALID,-0.0849042,VALID,19.7717,VALID,129,VALID,0,
2008-06-04, 00:06:00,VALID,919.385,VALID,0,VALID,100,VALID,-0.101885,VALID,19.7562,VALID,133,VALID,0,
2008-06-04, 00:07:00,VALID,919.362,VALID,0.2,VALID,100,VALID,-0.118866,VALID,19.7362,VALID,117,VALID,0,
2008-06-04, 00:08:00,VALID,919.344,VALID,0,VALID,100,VALID,-0.0849042,VALID,19.7592,VALID,69,VALID,0,
2008-06-04, 00:09:00,VALID,919.332,VALID,0.2,VALID,100,VALID,-0.101885,VALID,19.7527,VALID,77,VALID,0.221227,
2008-06-04, 00:10:00,VALID,919.318,VALID,0,VALID,100,VALID,-0.101885,VALID,19.72,VALID,97,VALID,0,
2008-06-04, 00:11:00,VALID,919.313,VALID,0,VALID,100,VALID,-0.101885,VALID,19.6938,VALID,104,VALID,0,
2008-06-04, 00:12:00,VALID,919.291,VALID,0.2,VALID,100,VALID,-0.101885,VALID,19.6778,VALID,110,VALID,0.545486,
2008-06-04, 00:13:00,VALID,919.274,VALID,0.2,VALID,100,VALID,-0.0849042,VALID,19.6389,VALID,107,VALID,0.593928,
2008-06-04, 00:14:00,VALID,919.257,VALID,0,VALID,100,VALID,-0.118866,VALID,19.6297,VALID,106,VALID,0.103561,
2008-06-04, 00:15:00,VALID,919.243,VALID,0.2,VALID,100,VALID,-0.101885,VALID,19.6224,VALID,94,VALID,0.0724927,
2008-06-04, 00:16:00,VALID,919.239,VALID,0.2,VALID,100,VALID,-0.101885,VALID,19.6322,VALID,84,VALID,0.0388849,
2008-06-04, 00:17:00,VALID,919.23,VALID,0,VALID,100,VALID,-0.0679233,VALID,19.6194,VALID,85,VALID,0,
2008-06-04, 00:18:00,VALID,919.198,VALID,0,VALID,100,VALID,-0.0849042,VALID,19.5935,VALID,85,VALID,0,
2008-06-04, 00:19:00,VALID,919.183,VALID,0.2,VALID,100,VALID,-0.101885,VALID,19.5905,VALID,86,VALID,0,
2008-06-04, 00:20:00,VALID,919.147,VALID,0.2,VALID,100,VALID,-0.101885,VALID,19.5638,VALID,126,VALID,0,
2008-06-04, 00:21:00,VALID,919.126,VALID,0,VALID,100,VALID,-0.0679233,VALID,19.5608,VALID,127,VALID,0,
2008-06-04, 00:22:00,VALID,919.112,VALID,0.2,VALID,100,VALID,-0.0679233,VALID,19.5638,VALID,127,VALID,0,
2008-06-04, 00:23:01,VALID,919.081,VALID,0,VALID,100,VALID,-0.0849042,VALID,19.5538,VALID,127,VALID,0,
2008-06-04, 00:24:00,VALID,919.058,VALID,0.2,VALID,100,VALID,-0.0849042,VALID,19.5478,VALID,129,VALID,0,
2008-06-04, 00:25:01,VALID,919.045,VALID,0.2,VALID,100,VALID,-0.101885,VALID,19.5545,VALID,129,VALID,0,
2008-06-04, 00:26:00,VALID,919.013,VALID,0.2,VALID,100,VALID,-0.0849042,VALID,19.5705,VALID,129,VALID,0,
2008-06-04, 00:27:00,VALID,918.984,VALID,0,VALID,100,VALID,-0.0679233,VALID,19.5835,VALID,129,VALID,0,
2008-06-04, 00:28:00,VALID,918.972,VALID,0.2,VALID,100,VALID,-0.0679233,VALID,19.5668,VALID,129,VALID,0,
2008-06-04, 00:29:00,VALID,918.944,VALID,0.2,VALID,100,VALID,-0.0849042,VALID,19.5573,VALID,129,VALID,0,
2008-06-04, 00:30:00,VALID,918.936,VALID,0,VALID,100,VALID,-0.0679233,VALID,19.5548,VALID,129,VALID,0,
2008-06-04, 00:31:00,VALID,918.907,VALID,0.2,VALID,100,VALID,-0.101885,VALID,19.5448,VALID,129,VALID,0,
2008-06-04, 00:32:00,VALID,918.883,VALID,0.2,VALID,100,VALID,-0.101885,VALID,19.5416,VALID,129,VALID,0,
2008-06-04, 00:33:00,VALID,918.882,VALID,0.2,VALID,100,VALID,-0.0509425,VALID,19.5149,VALID,148,VALID,0.286005,
2008-06-04, 00:34:00,VALID,918.876,VALID,0,VALID,100,VALID,-0.0339617,VALID,19.4919,VALID,146,VALID,0.417352,
2008-06-04, 00:35:01,VALID,918.86,VALID,0.2,VALID,100,VALID,-0.0679233,VALID,19.4887,VALID,151,VALID,0.0295516,
2008-06-04, 00:36:00,VALID,918.85,VALID,0.2,VALID,100,VALID,-0.0849042,VALID,19.4862,VALID,137,VALID,0.459162,
2008-06-04, 00:37:00,VALID,918.824,VALID,0,VALID,100,VALID,-0.0169808,VALID,19.4757,VALID,139,VALID,0.00360577,
2008-06-04, 00:38:01,VALID,918.807,VALID,0.2,VALID,100,VALID,-0.0679233,VALID,19.4792,VALID,138,VALID,0.0524306,
2008-06-04, 00:39:00,VALID,918.775,VALID,0,VALID,100,VALID,-0.0849042,VALID,19.4565,VALID,146,VALID,0,
2008-06-04, 00:40:01,VALID,918.757,VALID,0,VALID,100,VALID,-0.0849042,VALID,19.4407,VALID,147,VALID,0,
2008-06-04, 00:41:00,VALID,918.748,VALID,0.2,VALID,100,VALID,-0.0849042,VALID,19.4338,VALID,145,VALID,0,
2008-06-04, 00:42:00,VALID,918.728,VALID,0,VALID,100,VALID,-0.0849042,VALID,19.4308,VALID,151,VALID,0.418883,
2008-06-04, 00:43:01,VALID,918.718,VALID,0.2,VALID,100,VALID,-0.0849042,VALID,19.4113,VALID,153,VALID,0.531822,
2008-06-04, 00:44:01,VALID,918.702,VALID,0,VALID,100,VALID,-0.101885,VALID,19.3948,VALID,153,VALID,0,
2008-06-04, 00:45:00,VALID,918.689,VALID,0,VALID,100,VALID,-0.0679233,VALID,19.4016,VALID,153,VALID,0.00114329,
2008-06-04, 00:46:01,VALID,918.664,VALID,0,VALID,100,VALID,-0.0849042,VALID,19.3913,VALID,153,VALID,0,
2008-06-04, 00:47:01,VALID,918.636,VALID,0.2,VALID,100,VALID,-0.0679233,VALID,19.3951,VALID,153,VALID,0,
2008-06-04, 00:48:00,VALID,918.626,VALID,0,VALID,100,VALID,-0.0849042,VALID,19.3818,VALID,153,VALID,0,
2008-06-04, 00:49:00,VALID,918.603,VALID,0,VALID,100,VALID,-0.0679233,VALID,19.3786,VALID,170,VALID,0,
2008-06-04, 00:50:00,VALID,918.596,VALID,0,VALID,100,VALID,-0.0849042,VALID,19.3913,VALID,177,VALID,0,
2008-06-04, 00:51:01,VALID,918.585,VALID,0,VALID,100,VALID,-0.0679233,VALID,19.3781,VALID,177,VALID,0,
2008-06-04, 00:52:00,VALID,918.572,VALID,0.2,VALID,100,VALID,-0.0339617,VALID,19.3816,VALID,177,VALID,0,
2008-06-04, 00:53:00,VALID,918.57,VALID,0,VALID,100,VALID,-0.0169808,VALID,19.3806,VALID,177,VALID,0,
2008-06-04, 00:54:00,VALID,918.565,VALID,0,VALID,100,VALID,0.101885,VALID,19.4093,VALID,171,VALID,0,
2008-06-04, 00:55:00,VALID,918.548,VALID,0,VALID,100,VALID,0.0679233,VALID,19.4123,VALID,148,VALID,0,
2008-06-04, 00:56:00,VALID,918.538,VALID,0,VALID,100,VALID,0.0679233,VALID,19.3961,VALID,94,VALID,0,
2008-06-04, 00:57:00,VALID,918.524,VALID,0.2,VALID,100,VALID,0.0339617,VALID,19.3933,VALID,66,VALID,0,
2008-06-04, 00:58:00,VALID,918.507,VALID,0,VALID,100,VALID,0,VALID,19.3642,VALID,34,VALID,0.792039,
2008-06-04, 00:59:00,VALID,918.489,VALID,0,VALID,100,VALID,0.0679233,VALID,19.3347,VALID,27,VALID,0.68268,
2008-06-04, 01:00:01,VALID,918.475,VALID,0,VALID,100,VALID,0.0339617,VALID,19.3247,VALID,27,VALID,0.12429,
2008-06-04, 01:01:00,VALID,918.456,VALID,0,VALID,100,VALID,0.0339617,VALID,19.3152,VALID,27,VALID,0,
2008-06-04, 01:02:00,VALID,918.421,VALID,0.2,VALID,100,VALID,0,VALID,19.3162,VALID,27,VALID,0,
2008-06-04, 01:03:01,VALID,918.407,VALID,0,VALID,100,VALID,0.0169808,VALID,19.2995,VALID,27,VALID,0,
2008-06-04, 01:04:01,VALID,918.388,VALID,0,VALID,100,VALID,0.0339617,VALID,19.293,VALID,27,VALID,0,
2008-06-04, 01:05:00,VALID,918.368,VALID,0,VALID,100,VALID,-0.0169808,VALID,19.2768,VALID,46,VALID,0.326308,
2008-06-04, 01:06:00,VALID,918.339,VALID,0,VALID,100,VALID,0,VALID,19.2668,VALID,53,VALID,0.223404,
2008-06-04, 01:07:01,VALID,918.319,VALID,0,VALID,100,VALID,0,VALID,19.2703,VALID,53,VALID,0,
2008-06-04, 01:08:00,VALID,918.288,VALID,0,VALID,100,VALID,-0.0509425,VALID,19.281,VALID,53,VALID,0,
2008-06-04, 01:09:01,VALID,918.282,VALID,0,VALID,100,VALID,-0.101885,VALID,19.2843,VALID,53,VALID,0,
2008-06-04, 01:10:00,VALID,918.251,VALID,0.2,VALID,100,VALID,-0.0679233,VALID,19.281,VALID,53,VALID,0,
2008-06-04, 01:11:01,VALID,918.216,VALID,0,VALID,100,VALID,-0.101885,VALID,19.2586,VALID,54,VALID,0,
2008-06-04, 01:12:00,VALID,918.178,VALID,0,VALID,100,VALID,-0.101885,VALID,19.2685,VALID,77,VALID,0.046131,
2008-06-04, 01:13:00,VALID,918.143,VALID,0,VALID,100,VALID,-0.118866,VALID,19.2491,VALID,77,VALID,0,
2008-06-04, 01:14:00,VALID,918.11,VALID,0,VALID,100,VALID,-0.101885,VALID,19.2326,VALID,77,VALID,0,
2008-06-04, 01:15:01,VALID,918.081,VALID,0,VALID,100,VALID,-0.101885,VALID,19.2294,VALID,77,VALID,0,
2008-06-04, 01:16:01,VALID,918.052,VALID,0,VALID,100,VALID,-0.0509425,VALID,19.2226,VALID,77,VALID,0,
2008-06-04, 01:17:01,VALID,918.006,VALID,0,VALID,100,VALID,-0.0849042,VALID,19.2159,VALID,77,VALID,0,
2008-06-04, 01:18:01,VALID,917.971,VALID,0,VALID,100,VALID,-0.101885,VALID,19.2129,VALID,77,VALID,0.0948933,
2008-06-04, 01:19:01,VALID,917.931,VALID,0,VALID,100,VALID,-0.0509425,VALID,19.2159,VALID,111,VALID,0.0968387,
2008-06-04, 01:20:01,VALID,917.907,VALID,0,VALID,100,VALID,-0.0509425,VALID,19.2159,VALID,117,VALID,0,
2008-06-04, 01:21:01,VALID,917.884,VALID,0,VALID,100,VALID,-0.0849042,VALID,19.2229,VALID,100,VALID,0,
2008-06-04, 01:22:01,VALID,917.858,VALID,0,VALID,100,VALID,-0.0509425,VALID,19.2034,VALID,93,VALID,0,
2008-06-04, 01:23:01,VALID,917.833,VALID,0,VALID,100,VALID,-0.0339617,VALID,19.1867,VALID,91,VALID,0.332304,
2008-06-04, 01:24:00,VALID,917.812,VALID,0.2,VALID,100,VALID,-0.0339617,VALID,19.1969,VALID,120,VALID,0.174352,
2008-06-04, 01:25:00,VALID,917.793,VALID,0,VALID,100,VALID,-0.0509425,VALID,19.1932,VALID,160,VALID,0,
2008-06-04, 01:26:00,VALID,917.779,VALID,0,VALID,100,VALID,-0.0509425,VALID,19.1997,VALID,156,VALID,0,
2008-06-04, 01:27:00,VALID,917.751,VALID,0,VALID,100,VALID,-0.0679233,VALID,19.2029,VALID,130,VALID,0,
2008-06-04, 01:28:00,VALID,917.714,VALID,0,VALID,100,VALID,-0.0849042,VALID,19.1997,VALID,130,VALID,0,
2008-06-04, 01:29:00,VALID,917.694,VALID,0,VALID,100,VALID,-0.0849042,VALID,19.1997,VALID,139,VALID,0,
2008-06-04, 01:30:00,VALID,917.669,VALID,0,VALID,100,VALID,-0.0679233,VALID,19.2064,VALID,168,VALID,0,
2008-06-04, 01:31:00,VALID,917.66,VALID,0,VALID,100,VALID,-0.0849042,VALID,19.2062,VALID,172,VALID,0.0684956,
2008-06-04, 01:32:00,VALID,917.644,VALID,0,VALID,100,VALID,-0.0849042,VALID,19.2062,VALID,185,VALID,0.0126202,
2008-06-04, 01:33:00,VALID,917.634,VALID,0,VALID,100,VALID,-0.0849042,VALID,19.2062,VALID,180,VALID,0.434451,
2008-06-04, 01:34:00,VALID,917.616,VALID,0,VALID,100,VALID,-0.0849042,VALID,19.2094,VALID,186,VALID,0.287538,
2008-06-04, 01:35:00,VALID,917.599,VALID,0,VALID,100,VALID,-0.0509425,VALID,19.2129,VALID,186,VALID,0.272905,
2008-06-04, 01:36:00,VALID,917.568,VALID,0,VALID,100,VALID,-0.0849042,VALID,19.2127,VALID,189,VALID,0.476753,
2008-06-04, 01:37:00,VALID,917.539,VALID,0,VALID,100,VALID,-0.118866,VALID,19.2294,VALID,193,VALID,0.0436046,
2008-06-04, 01:38:00,VALID,917.534,VALID,0,VALID,100,VALID,-0.118866,VALID,19.2321,VALID,193,VALID,0.0085747,
2008-06-04, 01:39:00,VALID,917.484,VALID,0,VALID,100,VALID,-0.0509425,VALID,19.2358,VALID,192,VALID,0.129954,
2008-06-04, 01:40:00,VALID,917.477,VALID,0,VALID,100,VALID,-0.101885,VALID,19.2333,VALID,187,VALID,0,
2008-06-04, 01:41:00,VALID,917.455,VALID,0,VALID,100,VALID,-0.0849042,VALID,19.2159,VALID,143,VALID,0.637962,
2008-06-04, 01:42:00,VALID,917.437,VALID,0,VALID,100,VALID,-0.0849042,VALID,19.2264,VALID,146,VALID,0.693638,
2008-06-04, 01:43:00,VALID,917.407,VALID,0,VALID,100,VALID,-0.101885,VALID,19.2294,VALID,141,VALID,0.70348,
2008-06-04, 01:44:00,VALID,917.369,VALID,0,VALID,100,VALID,-0.101885,VALID,19.2328,VALID,139,VALID,0.526163,
2008-06-04, 01:45:00,VALID,917.327,VALID,0,VALID,100,VALID,-0.101885,VALID,19.2164,VALID,129,VALID,1.10156,
2008-06-04, 01:46:00,VALID,917.294,VALID,0,VALID,100,VALID,-0.101885,VALID,19.2268,VALID,125,VALID,0.639881,
2008-06-04, 01:47:00,VALID,917.265,VALID,0,VALID,100,VALID,-0.101885,VALID,19.2236,VALID,127,VALID,0.514482,
2008-06-04, 01:48:00,VALID,917.244,VALID,0,VALID,100,VALID,-0.0849042,VALID,19.2034,VALID,137,VALID,0.496094,
2008-06-04, 01:49:00,VALID,917.227,VALID,0,VALID,100,VALID,-0.0849042,VALID,19.1899,VALID,124,VALID,0.611719,
2008-06-04, 01:50:00,VALID,917.197,VALID,0,VALID,100,VALID,-0.0849042,VALID,19.1902,VALID,140,VALID,0.448742,
2008-06-04, 01:51:00,VALID,917.181,VALID,0,VALID,100,VALID,-0.101885,VALID,19.2071,VALID,144,VALID,0.500191,
2008-06-04, 01:52:00,VALID,917.154,VALID,0,VALID,100,VALID,-0.0849042,VALID,19.1969,VALID,135,VALID,0.589063,
2008-06-04, 01:53:00,VALID,917.142,VALID,0,VALID,100,VALID,-0.0339617,VALID,19.2064,VALID,169,VALID,0.598895,
2008-06-04, 01:54:00,VALID,917.122,VALID,0,VALID,100,VALID,0,VALID,19.2017,VALID,141,VALID,0.750888,
2008-06-04, 01:55:00,VALID,917.104,VALID,0,VALID,100,VALID,-0.0339617,VALID,19.1987,VALID,127,VALID,0.71596,
2008-06-04, 01:56:00,VALID,917.086,VALID,0,VALID,100,VALID,0.0169808,VALID,19.1989,VALID,126,VALID,0.453125,
2008-06-04, 01:57:00,VALID,917.089,VALID,0,VALID,100,VALID,0.0169808,VALID,19.192,VALID,121,VALID,0.0642361,
2008-06-04, 01:58:00,VALID,917.069,VALID,0,VALID,100,VALID,-0.0169808,VALID,19.2054,VALID,123,VALID,0.596354,
2008-06-04, 01:59:00,VALID,917.068,VALID,0,VALID,100,VALID,0,VALID,19.1927,VALID,139,VALID,0.709263,
2008-06-04, 02:00:00,VALID,917.061,VALID,0,VALID,100,VALID,0,VALID,19.1922,VALID,139,VALID,0.931286,
2008-06-04, 02:01:00,VALID,917.05,VALID,0,VALID,100,VALID,0,VALID,19.2022,VALID,130,VALID,1.07279,
2008-06-04, 02:02:00,VALID,917.053,VALID,0,VALID,100,VALID,-0.0169808,VALID,19.2124,VALID,126,VALID,1.14608,
2008-06-04, 02:03:00,VALID,917.031,VALID,0,VALID,100,VALID,0,VALID,19.2119,VALID,128,VALID,1.39602,
2008-06-04, 02:04:00,VALID,917.044,VALID,0,VALID,100,VALID,0,VALID,19.2152,VALID,132,VALID,1.16816,
2008-06-04, 02:05:00,VALID,917.033,VALID,0,VALID,100,VALID,0.0169808,VALID,19.2182,VALID,129,VALID,1.34337,
2008-06-04, 02:06:00,VALID,917.023,VALID,0,VALID,100,VALID,0,VALID,19.2251,VALID,133,VALID,1.27992,
2008-06-04, 02:07:00,VALID,917.012,VALID,0,VALID,100,VALID,0,VALID,19.2214,VALID,140,VALID,1.00657,
2008-06-04, 02:08:00,VALID,916.991,VALID,0,VALID,100,VALID,0,VALID,19.2212,VALID,129,VALID,0.945313,
2008-06-04, 02:09:00,VALID,916.957,VALID,0,VALID,100,VALID,0,VALID,19.2316,VALID,132,VALID,1.46733,
2008-06-04, 02:10:00,VALID,916.939,VALID,0,VALID,100,VALID,0.0339617,VALID,19.2281,VALID,140,VALID,1.52379,
2008-06-04, 02:11:00,VALID,916.918,VALID,0,VALID,100,VALID,0.0169808,VALID,19.2212,VALID,141,VALID,1.10556,
2008-06-04, 02:12:00,VALID,916.897,VALID,0,VALID,100,VALID,0,VALID,19.2281,VALID,133,VALID,1.43025,
2008-06-04, 02:13:00,VALID,916.878,VALID,0,VALID,100,VALID,0,VALID,19.2182,VALID,134,VALID,1.63819,
2008-06-04, 02:14:00,VALID,916.862,VALID,0,VALID,100,VALID,0.0339617,VALID,19.2249,VALID,137,VALID,1.62046,
2008-06-04, 02:15:00,VALID,916.85,VALID,0,VALID,100,VALID,0.0169808,VALID,19.2147,VALID,136,VALID,1.42391,
2008-06-04, 02:16:00,VALID,916.826,VALID,0,VALID,100,VALID,0.0509425,VALID,19.2247,VALID,137,VALID,1.97309,
2008-06-04, 02:17:00,VALID,916.806,VALID,0,VALID,100,VALID,0.0169808,VALID,19.2242,VALID,137,VALID,1.95141,
2008-06-04, 02:18:00,VALID,916.784,VALID,0,VALID,100,VALID,0.0169808,VALID,19.2311,VALID,130,VALID,1.42588,
2008-06-04, 02:19:00,VALID,916.777,VALID,0,VALID,100,VALID,0,VALID,19.2411,VALID,141,VALID,1.25186,
2008-06-04, 02:20:00,VALID,916.762,VALID,0,VALID,100,VALID,0,VALID,19.2409,VALID,141,VALID,1.37355,
2008-06-04, 02:21:00,VALID,916.739,VALID,0,VALID,100,VALID,-0.0169808,VALID,19.2506,VALID,137,VALID,1.06357,
2008-06-04, 02:22:00,VALID,916.727,VALID,0,VALID,100,VALID,0,VALID,19.2339,VALID,144,VALID,1.46693,
2008-06-04, 02:23:00,VALID,916.696,VALID,0,VALID,100,VALID,-0.0509425,VALID,19.2446,VALID,155,VALID,1.12159,
2008-06-04, 02:24:00,VALID,916.683,VALID,0,VALID,100,VALID,-0.101885,VALID,19.2453,VALID,144,VALID,1.5519,
2008-06-04, 02:25:00,VALID,916.677,VALID,0,VALID,100,VALID,-0.101885,VALID,19.2453,VALID,146,VALID,1.30022,
2008-06-04, 02:26:00,VALID,916.666,VALID,0,VALID,100,VALID,-0.101885,VALID,19.2421,VALID,146,VALID,1.52285,
2008-06-04, 02:27:00,VALID,916.643,VALID,0,VALID,100,VALID,-0.101885,VALID,19.2551,VALID,157,VALID,1.33194,
2008-06-04, 02:28:00,VALID,916.622,VALID,0,VALID,100,VALID,-0.0679233,VALID,19.2616,VALID,144,VALID,1.61923,
2008-06-04, 02:29:00,VALID,916.61,VALID,0,VALID,100,VALID,-0.101885,VALID,19.2613,VALID,152,VALID,1.23855,
2008-06-04, 02:30:00,VALID,916.586,VALID,0,VALID,100,VALID,-0.0339617,VALID,19.2643,VALID,152,VALID,1.39115,
2008-06-04, 02:31:00,VALID,916.577,VALID,0,VALID,100,VALID,-0.0509425,VALID,19.2745,VALID,159,VALID,1.16733,
2008-06-04, 02:32:00,VALID,916.551,VALID,0,VALID,100,VALID,-0.0849042,VALID,19.2613,VALID,170,VALID,0.940341,
2008-06-04, 02:33:00,VALID,916.548,VALID,0,VALID,100,VALID,-0.101885,VALID,19.2548,VALID,183,VALID,1.47582,
2008-06-04, 02:34:00,VALID,916.551,VALID,0,VALID,100,VALID,-0.0849042,VALID,19.2648,VALID,160,VALID,1.19425,
2008-06-04, 02:35:00,VALID,916.532,VALID,0,VALID,100,VALID,-0.101885,VALID,19.2548,VALID,165,VALID,1.3005,
2008-06-04, 02:36:00,VALID,916.51,VALID,0,VALID,100,VALID,-0.0169808,VALID,19.2613,VALID,166,VALID,1.30788,
2008-06-04, 02:37:00,VALID,916.497,VALID,0,VALID,100,VALID,-0.0849042,VALID,19.2713,VALID,171,VALID,1.12429,
2008-06-04, 02:38:00,VALID,916.486,VALID,0,VALID,100,VALID,-0.0849042,VALID,19.265,VALID,182,VALID,0.479469,
2008-06-04, 02:39:00,VALID,916.471,VALID,0,VALID,100,VALID,-0.0679233,VALID,19.269,VALID,182,VALID,1.33943,
2008-06-04, 02:40:00,VALID,916.469,VALID,0,VALID,100,VALID,-0.118866,VALID,19.256,VALID,184,VALID,1.38186,
2008-06-04, 02:41:00,VALID,916.454,VALID,0,VALID,100,VALID,-0.101885,VALID,19.2565,VALID,181,VALID,1.31123,
2008-06-04, 02:42:00,VALID,916.427,VALID,0,VALID,100,VALID,-0.101885,VALID,19.2466,VALID,167,VALID,1.54613,
2008-06-04, 02:43:00,VALID,916.399,VALID,0,VALID,100,VALID,-0.101885,VALID,19.2466,VALID,173,VALID,0.96841,
2008-06-04, 02:44:00,VALID,916.407,VALID,0,VALID,100,VALID,-0.101885,VALID,19.2363,VALID,174,VALID,0.947674,
2008-06-04, 02:45:00,VALID,916.424,VALID,0,VALID,100,VALID,-0.101885,VALID,19.2266,VALID,170,VALID,1.01116,
2008-06-04, 02:46:00,VALID,916.406,VALID,0,VALID,100,VALID,-0.101885,VALID,19.2303,VALID,156,VALID,1.33576,
2008-06-04, 02:47:00,VALID,916.4,VALID,0,VALID,100,VALID,-0.101885,VALID,19.2271,VALID,161,VALID,2.08079,
2008-06-04, 02:48:00,VALID,916.377,VALID,0,VALID,100,VALID,-0.135847,VALID,19.2401,VALID,144,VALID,1.4,
2008-06-04, 02:49:00,VALID,916.351,VALID,0,VALID,100,VALID,-0.101885,VALID,19.2401,VALID,152,VALID,1.79353,
2008-06-04, 02:50:00,VALID,916.354,VALID,0,VALID,100,VALID,-0.152827,VALID,19.2371,VALID,149,VALID,1.08594,
2008-06-04, 02:51:00,VALID,916.339,VALID,0,VALID,100,VALID,-0.118866,VALID,19.2368,VALID,169,VALID,0.953683,
2008-06-04, 02:52:00,VALID,916.328,VALID,0,VALID,100,VALID,-0.118866,VALID,19.2238,VALID,179,VALID,0.701219,
2008-06-04, 02:53:00,VALID,916.322,VALID,0,VALID,100,VALID,-0.0509425,VALID,19.2169,VALID,176,VALID,1.20033,
2008-06-04, 02:54:00,VALID,916.314,VALID,0,VALID,100,VALID,-0.0169808,VALID,19.2029,VALID,179,VALID,1.04818,
2008-06-04, 02:55:00,VALID,916.291,VALID,0,VALID,100,VALID,-0.0169808,VALID,19.1994,VALID,145,VALID,0.670455,
2008-06-04, 02:56:00,VALID,916.281,VALID,0,VALID,100,VALID,0,VALID,19.1932,VALID,171,VALID,1.70046,
2008-06-04, 02:57:00,VALID,916.288,VALID,0,VALID,100,VALID,-0.0509425,VALID,19.2032,VALID,171,VALID,1.5387,
2008-06-04, 02:58:00,VALID,916.271,VALID,0,VALID,100,VALID,-0.0339617,VALID,19.2062,VALID,165,VALID,0.915625,
2008-06-04, 02:59:00,VALID,916.267,VALID,0,VALID,100,VALID,-0.0169808,VALID,19.1964,VALID,166,VALID,1.84979,
2008-06-04, 03:00:00,VALID,916.235,VALID,0,VALID,100,VALID,-0.0679233,VALID,19.2099,VALID,170,VALID,1.66178,
2008-06-04, 03:01:00,VALID,916.228,VALID,0,VALID,100,VALID,-0.0169808,VALID,19.2002,VALID,167,VALID,1.92653,
2008-06-04, 03:02:00,VALID,916.214,VALID,0,VALID,100,VALID,0,VALID,19.1932,VALID,161,VALID,1.34084,
2008-06-04, 03:03:00,VALID,916.199,VALID,0,VALID,100,VALID,-0.0169808,VALID,19.1992,VALID,160,VALID,1.43136,
2008-06-04, 03:04:00,VALID,916.186,VALID,0,VALID,100,VALID,0,VALID,19.1997,VALID,176,VALID,1.61104,
2008-06-04, 03:05:00,VALID,916.167,VALID,0,VALID,100,VALID,-0.0169808,VALID,19.1899,VALID,176,VALID,1.68679,
2008-06-04, 03:06:00,VALID,916.165,VALID,0,VALID,100,VALID,-0.0169808,VALID,19.1869,VALID,173,VALID,1.71007,
2008-06-04, 03:07:00,VALID,916.171,VALID,0,VALID,100,VALID,0,VALID,19.1835,VALID,171,VALID,2.12627,
2008-06-04, 03:08:00,VALID,916.138,VALID,0,VALID,100,VALID,0,VALID,19.1802,VALID,171,VALID,1.69196,
2008-06-04, 03:09:00,VALID,916.146,VALID,0,VALID,100,VALID,0,VALID,19.1802,VALID,170,VALID,1.86559,
2008-06-04, 03:10:00,VALID,916.13,VALID,0,VALID,100,VALID,0,VALID,19.1805,VALID,173,VALID,1.89514,
2008-06-04, 03:11:00,VALID,916.115,VALID,0,VALID,100,VALID,-0.0339617,VALID,19.1705,VALID,157,VALID,1.37072,
2008-06-04, 03:12:00,VALID,916.108,VALID,0,VALID,100,VALID,-0.0169808,VALID,19.1705,VALID,164,VALID,1.29942,
2008-06-04, 03:13:00,VALID,916.112,VALID,0,VALID,100,VALID,0,VALID,19.164,VALID,180,VALID,1.80087,
2008-06-04, 03:14:00,VALID,916.1,VALID,0,VALID,100,VALID,0,VALID,19.154,VALID,163,VALID,1.66824,
2008-06-04, 03:15:00,VALID,916.085,VALID,0,VALID,100,VALID,0,VALID,19.164,VALID,160,VALID,1.86589,
2008-06-04, 03:16:00,VALID,916.085,VALID,0,VALID,100,VALID,-0.0339617,VALID,19.1508,VALID,159,VALID,1.24018,
2008-06-04, 03:17:00,VALID,916.077,VALID,0,VALID,100,VALID,0,VALID,19.1672,VALID,149,VALID,1.9401,
2008-06-04, 03:18:00,VALID,916.064,VALID,0,VALID,100,VALID,-0.0169808,VALID,19.1642,VALID,150,VALID,1.89717,
2008-06-04, 03:19:00,VALID,916.062,VALID,0,VALID,100,VALID,0,VALID,19.1737,VALID,164,VALID,2.1391,
2008-06-04, 03:20:00,VALID,916.059,VALID,0,VALID,100,VALID,0,VALID,19.18,VALID,150,VALID,2.04545,
2008-06-04, 03:21:00,VALID,916.044,VALID,0,VALID,100,VALID,0,VALID,19.1802,VALID,136,VALID,2.1599,
2008-06-04, 03:22:00,VALID,916.037,VALID,0,VALID,100,VALID,0,VALID,19.1867,VALID,144,VALID,1.99148,
2008-06-04, 03:23:00,VALID,916.027,VALID,0,VALID,100,VALID,0,VALID,19.1867,VALID,143,VALID,2.04403,
2008-06-04, 03:24:00,VALID,916.017,VALID,0,VALID,100,VALID,0.0169808,VALID,19.1832,VALID,130,VALID,2.60138,
2008-06-04, 03:25:00,VALID,916.01,VALID,0,VALID,100,VALID,0.0169808,VALID,19.1897,VALID,136,VALID,2.18445,
2008-06-04, 03:26:00,VALID,915.987,VALID,0,VALID,100,VALID,-0.0339617,VALID,19.1897,VALID,139,VALID,2.50171,
2008-06-04, 03:27:00,VALID,915.944,VALID,0,VALID,100,VALID,0,VALID,19.2059,VALID,134,VALID,2.81159,
2008-06-04, 03:28:00,VALID,915.939,VALID,0,VALID,100,VALID,-0.0169808,VALID,19.2059,VALID,135,VALID,1.96627,
2008-06-04, 03:29:00,VALID,915.915,VALID,0,VALID,100,VALID,0,VALID,19.2189,VALID,122,VALID,3.15059,
2008-06-04, 03:30:00,VALID,915.896,VALID,0,VALID,100,VALID,-0.0169808,VALID,19.2289,VALID,143,VALID,2.73512,
2008-06-04, 03:31:00,VALID,915.906,VALID,0,VALID,100,VALID,0,VALID,19.2418,VALID,124,VALID,2.73438,
2008-06-04, 03:32:00,VALID,915.898,VALID,0,VALID,100,VALID,-0.0339617,VALID,19.2708,VALID,141,VALID,2.54063,
2008-06-04, 03:33:00,VALID,915.899,VALID,0,VALID,100,VALID,-0.0169808,VALID,19.284,VALID,127,VALID,2.14156,
2008-06-04, 03:34:00,VALID,915.899,VALID,0,VALID,100,VALID,-0.0169808,VALID,19.2873,VALID,130,VALID,2.32867,
2008-06-04, 03:35:00,VALID,915.901,VALID,0,VALID,100,VALID,0,VALID,19.2643,VALID,126,VALID,2.57793,
2008-06-04, 03:36:00,VALID,915.903,VALID,0,VALID,100,VALID,0,VALID,19.2743,VALID,145,VALID,2.34928,
2008-06-04, 03:37:00,VALID,915.919,VALID,0,VALID,100,VALID,0,VALID,19.2733,VALID,127,VALID,2.20274,
2008-06-04, 03:38:00,VALID,915.919,VALID,0,VALID,100,VALID,-0.0509425,VALID,19.291,VALID,137,VALID,2.46875,
2008-06-04, 03:39:00,VALID,915.928,VALID,0,VALID,100,VALID,-0.118866,VALID,19.3054,VALID,140,VALID,2.44931,
2008-06-04, 03:40:00,VALID,915.945,VALID,0,VALID,100,VALID,-0.135847,VALID,19.3047,VALID,135,VALID,2.26126,
2008-06-04, 03:41:00,VALID,915.934,VALID,0,VALID,100,VALID,-0.135847,VALID,19.3114,VALID,142,VALID,2.18886,
2008-06-04, 03:42:00,VALID,915.944,VALID,0,VALID,100,VALID,-0.101885,VALID,19.3112,VALID,138,VALID,2.15098,